Flag for Falkland Islands Weather past 2 weeks in Stanley, Falkland Islands

Now
41 °F

Clear.


Feels Like: 38 °F
Forecast: N/A
Wind: 5 mph from Northwest

Location: Mount Pleasant Airport


UV Index: N/A

Visibility: 10 mi


Pressure: 30.24 "Hg

Humidity: 76%

Dew point: 34 °F

Location of StanleyLocation

Historic Weather in Stanley

°F

Stanley temperature yesterday

Maximum temperature yesterday: 45 °F (at 12:50 PM)
Minimum temperature yesterday: 37 °F (at 10:50 PM)
Average temperature yesterday: 41 °F

Past Weeks' High & Low Weather Summary

 TemperatureHumidityPressure
High52 °F (Apr 15, 4:50 PM)100% (Apr 9, 6:50 PM)30.27 "Hg (Apr 9, 6:50 PM)
Low30 °F (Apr 19, 6:50 AM)46% (Apr 11, 1:50 PM)29.00 "Hg (Apr 10, 10:50 PM)
Average41 °F86%29.63 "Hg
* Reported Apr 9 6:50 PM — Apr 24 6:50 PM, Stanley, Weather by CustomWeather, © 2014

Note: Actual official high and low records may vary slightly from our data, if they occured in-between our weather recording intervals... More about our weather records

Advertising

Historic Weather Conditions — Data for Previous 24 hours

 ConditionsComfort  
Time TempWeatherWind HumidityBarometerVisibility
6:50 PM
Apr 24
41 °FPassing clouds.2 mph81%30.24 "HgN/A
5:50 PM43 °FPartly sunny.6 mph81%30.24 "HgN/A
4:50 PM45 °FBroken clouds.6 mph76%30.24 "HgN/A
3:50 PM45 °FPartly sunny.12 mph81%30.24 "HgN/A
2:50 PM46 °FBroken clouds.10 mph76%30.24 "HgN/A
1:50 PM45 °FBroken clouds.13 mph76%30.24 "HgN/A
12:50 PM45 °FPartly sunny.13 mph76%30.27 "HgN/A
11:50 AM45 °FPartly sunny.13 mph81%30.27 "HgN/A
10:50 AM43 °FPartly sunny.8 mph81%30.27 "HgN/A
9:50 AM39 °FFog.8 mph100%30.27 "Hg5 mi
8:50 AM36 °FPassing clouds.8 mph100%30.27 "Hg4 mi
7:50 AM36 °FFog.7 mph100%30.27 "Hg5 mi
6:50 AM34 °FPassing clouds.8 mph100%30.27 "HgN/A
5:50 AM34 °FFog.2 mph100%30.27 "Hg2 mi
4:50 AM34 °FClear.3 mph100%30.27 "Hg10 mi
3:50 AM36 °FPassing clouds.2 mph100%30.27 "HgN/A
2:50 AM37 °FLow clouds.No wind100%30.27 "HgN/A
1:50 AM37 °FLow clouds.5 mph100%30.27 "HgN/A
12:50 AM37 °FFog.7 mph100%30.27 "Hg0 mi
11:50 PM
Apr 23
37 °FFog.6 mph100%30.27 "Hg1 mi
10:50 PM37 °FFog.6 mph100%30.27 "Hg1 mi
9:50 PM39 °FFog.5 mph93%30.24 "Hg4 mi
8:50 PM39 °FLow clouds.6 mph93%30.24 "HgN/A
Weather by CustomWeather, © 2014

See weather overview